Погода в Магарасе

Россия / Республика Саха (Якутия)     62°08′52″N   128°03′40″E
темп.,
°C
ветер,
м/с
пор.,
м/с
влажн.,
%
обл.,
%
осадки,
мм/ч
давл.,
гПа
погр.,
м
3 марта, ср
ср300:00−36зсз1110076 0.0 102419
03:00−35зсз1110081 0.0 102319
06:00−36сз1110082 0.0 102319
09:00−34зсз119776 0.0 102219
12:00−30сз238889 0.0 1021274
15:00−28сз348693 0.0 1019390
18:00−31зсз349798 0.0 101920
21:00−32зсз479899 0.0 1019167
4 марта, чт
чт400:00−32зсз5896100 0.1 1019318
03:00−32зсз51096100 0.1 1019425
06:00−33зсз61096100 0.1 1018558
09:00−32зсз71092100 0.3 1018798
12:00−31зсз7990100 0.1 1019841
15:00−30зсз7989100 0.2 1020914
18:00−32сз5994100 0.1 1022399
21:00−35сз5898100 0.1 1024195
5 марта, пт
пт500:00−38зсз569996 0.0 102592
03:00−37зсз589797 0.0 1027140
06:00−37зсз599895 0.0 1027154
09:00−35зсз6119596 0.0 1028394
12:00−32зсз71092100 0.0 1029506
15:00−29зсз71092100 0.0 1028577
18:00−32зсз5896100 0.0 1029124
21:00−33зсз599894 0.0 1029138
6 марта, сб
сб600:00−34зсз699752 0.0 1028132
03:00−35зсз599737 0.0 1028116
06:00−35зсз589721 0.0 1028113
09:00−33зсз6109616 0.0 1027253
12:00−28зсз568937 0.0 1026320
15:00−25зсз468751 0.0 1025390
18:00−29зсз339838 0.0 102419
21:00−32зсз2210019 0.0 102519
7 марта, вс
вс700:00−34зсз111000 0.0 102519
03:00−35з111000 0.0 102519
06:00−36зсз111000 0.0 102519
09:00−30зсз11880 0.0 102533
12:00−27сз11710 0.0 1023238
15:00−23с11770 0.0 1022281
18:00−28всв12970 0.0 102219
21:00−30ююв22970 0.0 102319